Location: Center Berlin
(42.6609°N, 73.3687°W)
Time: 21:59:14
(UTC+00:00)

Cosmos 44 Rocket - Pass Details

Date: 10 September 2024
Orbit: 652 x 730 km, 65.1° (Epoch: 14 October)

Event Time Altitude Azimuth Distance (km) Brightness Sun altitude
Rises 23:43:29 0° 330° (NNW) 3,030 7.3 -6.7°
Reaches altitude 10° 23:45:54 10° 335° (NNW) 2,101 6.3 -7.1°
Maximum altitude 23:50:32 51° 52° (NE) 828 3.5 -8.0°
Drops below altitude 10° 23:55:05 10° 129° (SE) 2,058 5.2 -8.8°
Enters shadow 23:55:25 - 130° (SE) 2,183 5.3 -8.8°
